• In Czech Republic
  • List of Countries
  • For 7 days
  • Water Temperature
  • Satellite Maps
  • Weather Map
  • Weather Widgets
  • user-avatar
    Login

    Hourly Weather Bolehov

    Today, 25 June, Monday

    Time Temperature Precipitation Wind Pressure Humidity
    00:00 +9°C° 0 mm 2 mps 728 mmHg 92%
    01:00 +9°C° 0 mm 2 mps 729 mmHg 92%
    02:00 +9°C° 0 mm 1 mps 729 mmHg 92%
    03:00 +9°C° 0 mm 1 mps 729 mmHg 92%
    04:00 +9°C° 0 mm 1 mps 729 mmHg 92%
    05:00 +10°C° 0 mm 1 mps 729 mmHg 91%
    06:00 +11°C° 0 mm 1 mps 729 mmHg 87%
    07:00 +13°C° 0 mm 1 mps 730 mmHg 83%
    08:00 +15°C° 0 mm 1 mps 730 mmHg 79%
    09:00 +16°C° 0.3 mm 1 mps 730 mmHg 76%
    10:00 +18°C° 0.3 mm 1 mps 730 mmHg 73%
    11:00 +19°C° 0.3 mm 1 mps 730 mmHg 71%
    12:00 +20°C° 0.7 mm 1 mps 730 mmHg 70%
    13:00 +20°C° 0.7 mm 1 mps 730 mmHg 68%
    14:00 +21°C° 0.7 mm 1 mps 730 mmHg 67%
    15:00 +20°C° 0.7 mm 1 mps 730 mmHg 69%
    16:00 +20°C° 0.7 mm 1 mps 730 mmHg 70%
    17:00 +20°C° 0.7 mm 1 mps 730 mmHg 71%
    18:00 +19°C° 0.5 mm 1 mps 730 mmHg 76%
    19:00 +16°C° 0.5 mm 1 mps 730 mmHg 82%
    20:00 +14°C° 0.5 mm 0 mps 730 mmHg 87%
    21:00 +13°C° 0 mm 0 mps 730 mmHg 88%
    22:00 +13°C° 0 mm 1 mps 730 mmHg 89%
    23:00 +12°C° 0 mm 1 mps 730 mmHg 90%

    Tomorrow, 26 June, Tuesday

    Time Temperature Precipitation Wind Pressure Humidity
    00:00 +12°C° 0 mm 1 mps 730 mmHg 91%
    01:00 +11°C° 0 mm 1 mps 730 mmHg 91%
    02:00 +11°C° 0 mm 1 mps 730 mmHg 91%
    03:00 +11°C° 0 mm 1 mps 730 mmHg 91%
    04:00 +11°C° 0 mm 1 mps 730 mmHg 91%
    05:00 +11°C° 0 mm 1 mps 730 mmHg 91%
    06:00 +13°C° 0 mm 1 mps 730 mmHg 87%
    07:00 +15°C° 0 mm 1 mps 730 mmHg 82%
    08:00 +18°C° 0 mm 1 mps 730 mmHg 78%
    09:00 +19°C° 0.1 mm 1 mps 730 mmHg 74%
    10:00 +20°C° 0.1 mm 1 mps 730 mmHg 70%
    11:00 +22°C° 0.1 mm 1 mps 730 mmHg 65%
    12:00 +22°C° 0.6 mm 1 mps 730 mmHg 66%
    13:00 +22°C° 0.6 mm 1 mps 730 mmHg 67%
    14:00 +22°C° 0.6 mm 1 mps 729 mmHg 68%
    15:00 +22°C° 1.1 mm 1 mps 729 mmHg 71%
    16:00 +20°C° 1.1 mm 2 mps 729 mmHg 73%
    17:00 +20°C° 1.1 mm 2 mps 729 mmHg 76%
    18:00 +20°C° 0.3 mm 1 mps 729 mmHg 80%
    19:00 +19°C° 0.3 mm 1 mps 728 mmHg 85%
    20:00 +15°C° 0.3 mm 0 mps 728 mmHg 89%
    21:00 +15°C° 0 mm 0 mps 728 mmHg 90%
    22:00 +14°C° 0 mm 0 mps 729 mmHg 90%
    23:00 +13°C° 0 mm 0 mps 729 mmHg 91%

    Day after tomorrow, 27 June, Wednesday

    Time Temperature Precipitation Wind Pressure Humidity
    00:00 +13°C° 0 mm 0 mps 728 mmHg 91%
    01:00 +12°C° 0 mm 0 mps 728 mmHg 92%
    02:00 +12°C° 0 mm 0 mps 728 mmHg 93%
    03:00 +12°C° 0 mm 0 mps 728 mmHg 93%
    04:00 +12°C° 0 mm 0 mps 728 mmHg 93%
    05:00 +12°C° 0 mm 0 mps 728 mmHg 94%
    06:00 +14°C° 0 mm 1 mps 728 mmHg 91%
    07:00 +16°C° 0 mm 1 mps 728 mmHg 89%
    08:00 +18°C° 0 mm 1 mps 728 mmHg 86%
    09:00 +18°C° 0.4 mm 2 mps 728 mmHg 82%
    10:00 +19°C° 0.4 mm 2 mps 728 mmHg 79%
    11:00 +20°C° 0.4 mm 3 mps 728 mmHg 76%
    12:00 +21°C° 0.4 mm 3 mps 728 mmHg 73%
    13:00 +22°C° 0.4 mm 4 mps 727 mmHg 70%
    14:00 +22°C° 0.4 mm 4 mps 727 mmHg 67%
    15:00 +22°C° 0.2 mm 4 mps 727 mmHg 68%
    16:00 +22°C° 0.2 mm 4 mps 727 mmHg 70%
    17:00 +22°C° 0.2 mm 4 mps 727 mmHg 71%
    18:00 +21°C° 0.3 mm 3 mps 726 mmHg 77%
    19:00 +20°C° 0.3 mm 3 mps 726 mmHg 83%
    20:00 +18°C° 0.3 mm 3 mps 726 mmHg 89%
    21:00 +18°C° 0.4 mm 3 mps 725 mmHg 91%
    22:00 +17°C° 0.4 mm 3 mps 725 mmHg 92%
    23:00 +17°C° 0.4 mm 3 mps 724 mmHg 94%

    28 June, Thursday

    Time Temperature Precipitation Wind Pressure Humidity
    00:00 +17°C° 2.4 mm 3 mps 723 mmHg 95%
    01:00 +17°C° 2.4 mm 3 mps 723 mmHg 96%
    02:00 +17°C° 2.4 mm 4 mps 722 mmHg 98%
    03:00 +17°C° 2 mm 4 mps 721 mmHg 98%
    04:00 +18°C° 2 mm 4 mps 721 mmHg 98%
    05:00 +18°C° 2 mm 4 mps 720 mmHg 98%
    06:00 +18°C° 0.7 mm 4 mps 720 mmHg 97%
    07:00 +19°C° 0.7 mm 4 mps 720 mmHg 96%
    08:00 +19°C° 0.7 mm 4 mps 720 mmHg 95%
    09:00 +20°C° 0.4 mm 4 mps 720 mmHg 92%
    10:00 +21°C° 0.4 mm 4 mps 720 mmHg 89%
    11:00 +22°C° 0.4 mm 4 mps 721 mmHg 86%
    12:00 +22°C° 0.7 mm 4 mps 721 mmHg 83%
    13:00 +22°C° 0.7 mm 4 mps 721 mmHg 80%
    14:00 +22°C° 0.7 mm 3 mps 721 mmHg 77%
    15:00 +24°C° 0.6 mm 3 mps 721 mmHg 74%
    16:00 +24°C° 0.6 mm 2 mps 721 mmHg 72%
    17:00 +24°C° 0.6 mm 1 mps 721 mmHg 70%
    18:00 +22°C° 0.4 mm 1 mps 721 mmHg 76%
    19:00 +21°C° 0.4 mm 1 mps 722 mmHg 82%
    20:00 +20°C° 0.4 mm 1 mps 722 mmHg 88%
    21:00 +19°C° 0 mm 1 mps 722 mmHg 90%
    22:00 +18°C° 0 mm 1 mps 721 mmHg 91%
    23:00 +16°C° 0 mm 1 mps 721 mmHg 92%

    29 June, Friday

    Time Temperature Precipitation Wind Pressure Humidity
    00:00 +16°C° 0 mm 1 mps 721 mmHg 93%
    01:00 +15°C° 0 mm 1 mps 722 mmHg 93%
    02:00 +15°C° 0 mm 1 mps 722 mmHg 94%
    03:00 +15°C° 0 mm 1 mps 722 mmHg 94%
    04:00 +15°C° 0 mm 1 mps 722 mmHg 94%
    05:00 +15°C° 0 mm 1 mps 722 mmHg 95%
    06:00 +16°C° 0 mm 1 mps 722 mmHg 90%
    07:00 +19°C° 0 mm 1 mps 722 mmHg 85%
    08:00 +21°C° 0 mm 1 mps 722 mmHg 80%
    09:00 +22°C° 0.6 mm 1 mps 722 mmHg 79%
    10:00 +23°C° 0.6 mm 1 mps 722 mmHg 78%
    11:00 +23°C° 0.6 mm 1 mps 722 mmHg 77%
    12:00 +23°C° 2.8 mm 1 mps 721 mmHg 79%
    13:00 +23°C° 2.8 mm 1 mps 721 mmHg 82%
    14:00 +21°C° 2.8 mm 2 mps 721 mmHg 84%
    15:00 +21°C° 1 mm 2 mps 721 mmHg 84%
    16:00 +21°C° 1 mm 2 mps 721 mmHg 85%
    17:00 +21°C° 1 mm 2 mps 721 mmHg 85%
    18:00 +20°C° 0.2 mm 2 mps 721 mmHg 87%
    19:00 +20°C° 0.2 mm 1 mps 720 mmHg 89%
    20:00 +19°C° 0.2 mm 1 mps 720 mmHg 91%
    21:00 +18°C° 0.1 mm 1 mps 721 mmHg 92%
    22:00 +18°C° 0.1 mm 1 mps 721 mmHg 93%
    23:00 +16°C° 0.1 mm 1 mps 721 mmHg 94%

    30 June, Saturday

    Time Temperature Precipitation Wind Pressure Humidity
    00:00 +16°C° 0.1 mm 2 mps 721 mmHg 94%
    01:00 +15°C° 0.1 mm 2 mps 721 mmHg 94%
    02:00 +15°C° 0.1 mm 2 mps 721 mmHg 94%
    03:00 +15°C° 0.2 mm 2 mps 721 mmHg 94%
    04:00 +15°C° 0.2 mm 2 mps 721 mmHg 94%
    05:00 +15°C° 0.2 mm 2 mps 721 mmHg 94%
    06:00 +16°C° 0.2 mm 2 mps 721 mmHg 92%
    07:00 +17°C° 0.2 mm 2 mps 722 mmHg 90%
    08:00 +18°C° 0.2 mm 2 mps 722 mmHg 88%
    09:00 +19°C° 0.4 mm 3 mps 722 mmHg 84%
    10:00 +20°C° 0.4 mm 3 mps 722 mmHg 80%
    11:00 +20°C° 0.4 mm 4 mps 722 mmHg 76%
    12:00 +21°C° 0.5 mm 4 mps 722 mmHg 73%
    13:00 +22°C° 0.5 mm 4 mps 723 mmHg 70%
    14:00 +23°C° 0.5 mm 4 mps 723 mmHg 66%
    15:00 +23°C° 0.6 mm 4 mps 723 mmHg 71%
    16:00 +22°C° 0.6 mm 3 mps 723 mmHg 75%
    17:00 +22°C° 0.6 mm 3 mps 723 mmHg 79%
    18:00 +21°C° 0.4 mm 2 mps 723 mmHg 83%
    19:00 +20°C° 0.4 mm 2 mps 723 mmHg 88%
    20:00 +19°C° 0.4 mm 1 mps 723 mmHg 92%
    21:00 +19°C° 0 mm 1 mps 724 mmHg 93%
    22:00 +18°C° 0 mm 1 mps 724 mmHg 94%
    23:00 +16°C° 0 mm 1 mps 724 mmHg 94%
    Show more